Regional Weather Roundup
Issued by NWS Cleveland, OH

Home | Current Version | Previous Version | Text Only | Print | Product List | Glossary Off
Versions: 1 2 3 4 5 6 7 8 9 10 11 12 13 14 15 16 17 18 19 20 21 22 23 24 25 26 27 28 29 30 31 32 33 34 35 36 37 38 39 40 41 42 43 44 45 46 47 48 49 50

697
ASUS41 KCLE 231410
RWRCLE
OHIO REGIONAL WEATHER ROUNDUP
NATIONAL WEATHER SERVICE WILMINGTON, OH
900 AM EST FRI FEB 23 2018

NOTE: "FAIR" INDICATES FEW OR NO CLOUDS BELOW 12,000 FEET WITH NO
SIGNIFICANT WEATHER AND/OR OBSTRUCTIONS TO VISIBILITY.

OHZ001>008-015>018-024>027-034-035-043-044-231500-
   NORTHWEST OHIO

CITY           SKY/WX    TMP DP  RH WIND       PRES   REMARKS
DEFIANCE       LGT RAIN  39  37  92 CALM      30.13F FOG
FINDLAY        CLOUDY    46  43  89 SE14      30.11F FOG
TOLEDO EXPRESS LGT RAIN  38  38 100 SE5       30.13F VSB 1
TOLEDO EXEC    CLOUDY    39  38  96 E6        30.14F FOG
LIMA           LGT RAIN  48  48 100 S12       30.13F FOG
$$

OHZ009>014-019>023-028>033-038-089-231500-
   NORTHEAST OHIO

CITY           SKY/WX    TMP DP  RH WIND       PRES   REMARKS
CLE-HOPKINS    CLOUDY    47  45  93 S14       30.19F
CLE-LAKEFRONT  CLOUDY    47  43  86 SE22G29   30.17F
CUY CO. ARPT   CLOUDY    46  45  93 S12       30.20F FOG
LORAIN-ELYRIA  CLOUDY    44  40  85 S13       30.16F FOG
ASHTABULA      CLOUDY    43  43 100 SE13      30.22F FOG
AKRON-CANTON   LGT RAIN  46  43  89 SE13      30.20F VSB 1/4
WOOSTER        LGT RAIN  44  44 100 CALM      30.21F FOG
MANSFIELD      CLOUDY    47  47 100 S13       30.17F
YOUNGSTOWN     LGT RAIN  43  42  97 SE13      30.24F VSB 1/2
$$

OHZ042-051>053-060>062-070>072-077>081-231500-
  SOUTHWEST OHIO

CITY           SKY/WX    TMP DP  RH WIND       PRES   REMARKS
CINC-COVINGTON LGT RAIN  56  55  97 S10       30.21S FOG
CINC-LUNKEN    CLOUDY    52  52 100 CALM      30.23R
HAMILTON       CLOUDY    54  54 100 CALM      30.21F
DAYTON         CLOUDY    54  54 100 S14       30.18S VSB 1
WRIGHT-PAT AFB CLOUDY    55  54  96 S10       30.18R
DAYTON GENERAL LGT RAIN  56  55  97 SW10      30.19R FOG
WILMINGTON     CLOUDY    53  53 100 S13       30.20R
$$

OHZ036-037-039>041-045>050-054>059-063>069-073>076-082>088-231500-
  CENTRAL AND SOUTHEAST OHIO

CITY           SKY/WX    TMP DP  RH WIND       PRES   REMARKS
COLUMBUS       LGT RAIN  48  48 100 SE8       30.19F FOG
OSU AIRPORT    CLOUDY    48  48 100 S10       30.19F FOG
BOLTON FIELD   CLOUDY    46  46 100 S10G17    30.20F FOG
RICKENBACK AFB LGT RAIN  47  47 100 SE3       30.20F
NEWARK         RAIN      46  45  96 E3        30.20F FOG
MARION         CLOUDY    49  48  97 S10       30.16F FOG
LANCASTER      LGT RAIN  46  46 100 SE15      30.22F FOG
ZANESVILLE     HVY RAIN  46  44  93 S5        30.25F VSB 3/4
NEW PHILLY     LGT RAIN  45  44  97 SE5       30.25F FOG
$$




USA.gov is the U.S. government's official web portal to all federal, state and local government web resources and services.